�������l�o���
Date,Time,MP-1(��Sv/h),MP-2(��Sv/h),MP-3(��Sv/h),MP-4(��Sv/h),MP-5(��Sv/h),MP-6(��Sv/h),MP-7(��Sv/h),MP-8(��Sv/h),����,����(m/s),���J
2022/04/17,00:00,0.558,0.831,0.533,1.012,0.712,0.341,0.589,0.560,�k�k��,0.6,��
2022/04/17,00:10,0.558,0.828,0.534,1.011,0.712,0.341,0.589,0.560,-,CALM,��
2022/04/17,00:20,0.560,0.829,0.534,1.011,0.710,0.341,0.588,0.559,��쓌,1.7,��
2022/04/17,00:30,0.560,0.830,0.533,1.010,0.709,0.342,0.589,0.559,��,2.3,��
2022/04/17,00:40,0.560,0.829,0.533,1.010,0.711,0.341,0.591,0.560,��,3.1,��
2022/04/17,00:50,0.558,0.831,0.534,1.016,0.712,0.340,0.589,0.560,��쐼,2.3,��
2022/04/17,01:00,0.558,0.828,0.534,1.011,0.713,0.342,0.587,0.560,��,2.6,��
2022/04/17,01:10,0.560,0.831,0.534,1.010,0.710,0.342,0.589,0.560,��쐼,2.9,��
2022/04/17,01:20,0.560,0.831,0.532,1.013,0.711,0.341,0.589,0.559,��쐼,3.7,��
2022/04/17,01:30,0.560,0.829,0.535,1.010,0.712,0.341,0.588,0.560,��쐼,3.2,��
2022/04/17,01:40,0.560,0.827,0.534,1.011,0.712,0.340,0.590,0.559,�쐼,3.0,��
2022/04/17,01:50,0.559,0.829,0.533,1.012,0.711,0.340,0.589,0.559,�쐼,3.7,��
2022/04/17,02:00,0.560,0.830,0.533,1.015,0.711,0.341,0.591,0.559,�쐼,3.8,��
2022/04/17,02:10,0.559,0.829,0.534,1.012,0.711,0.340,0.590,0.560,�쐼,4.2,��
2022/04/17,02:20,0.559,0.829,0.532,1.010,0.712,0.342,0.589,0.559,�쐼,4.6,��
2022/04/17,02:30,0.559,0.829,0.532,1.012,0.710,0.341,0.589,0.560,�쐼,3.8,��
2022/04/17,02:40,0.558,0.828,0.533,1.013,0.711,0.343,0.588,0.561,�쐼,3.3,��
2022/04/17,02:50,0.560,0.831,0.533,1.010,0.713,0.341,0.589,0.559,�쐼,3.1,��
2022/04/17,03:00,0.560,0.829,0.534,1.012,0.713,0.341,0.588,0.559,���쐼,3.1,��
2022/04/17,03:10,0.559,0.829,0.532,1.012,0.713,0.341,0.589,0.560,���쐼,2.8,��
2022/04/17,03:20,0.559,0.829,0.532,1.011,0.710,0.341,0.589,0.559,���쐼,2.9,��
2022/04/17,03:30,0.559,0.828,0.535,1.011,0.712,0.341,0.589,0.561,���쐼,2.6,��
2022/04/17,03:40,0.559,0.830,0.535,1.012,0.712,0.342,0.589,0.559,���쐼,2.8,��
2022/04/17,03:50,0.558,0.827,0.533,1.013,0.711,0.340,0.587,0.561,���쐼,2.0,��
2022/04/17,04:00,0.560,0.827,0.533,1.010,0.711,0.340,0.590,0.559,�k��,2.5,��
2022/04/17,04:10,0.560,0.831,0.533,1.012,0.712,0.341,0.587,0.560,���k��,2.3,��
2022/04/17,04:20,0.557,0.828,0.533,1.012,0.712,0.341,0.588,0.560,��,1.4,��
2022/04/17,04:30,0.557,0.828,0.534,1.010,0.712,0.341,0.587,0.561,��,2.3,��
2022/04/17,04:40,0.558,0.827,0.533,1.013,0.711,0.339,0.588,0.558,��,2.0,��
2022/04/17,04:50,0.560,0.829,0.533,1.011,0.711,0.341,0.590,0.560,���쐼,2.3,��
2022/04/17,05:00,0.559,0.829,0.533,1.012,0.711,0.342,0.589,0.560,���쐼,2.3,��
2022/04/17,05:10,0.560,0.828,0.534,1.012,0.713,0.339,0.588,0.561,�쐼,1.7,��
2022/04/17,05:20,0.559,0.828,0.534,1.013,0.711,0.342,0.588,0.561,�쐼,1.4,��
2022/04/17,05:30,0.559,0.828,0.532,1.010,0.711,0.341,0.588,0.561,��쐼,1.9,��
2022/04/17,05:40,0.560,0.828,0.531,1.012,0.712,0.341,0.588,0.559,��,1.7,��
2022/04/17,05:50,0.559,0.830,0.532,1.013,0.712,0.341,0.588,0.559,�쓌,1.4,��
2022/04/17,06:00,0.557,0.829,0.532,1.012,0.712,0.341,0.590,0.559,��쓌,1.4,��
2022/04/17,06:10,0.559,0.829,0.534,1.012,0.713,0.340,0.590,0.559,��,1.7,��
2022/04/17,06:20,0.558,0.830,0.533,1.012,0.712,0.342,0.589,0.559,��쓌,1.7,��
2022/04/17,06:30,0.558,0.830,0.533,1.016,0.713,0.341,0.590,0.561,��,1.7,��
2022/04/17,06:40,0.558,0.829,0.533,1.013,0.711,0.342,0.589,0.562,��쐼,1.4,��
2022/04/17,06:50,0.559,0.830,0.535,1.012,0.711,0.341,0.589,0.559,��쐼,2.2,��
2022/04/17,07:00,0.559,0.829,0.534,1.011,0.712,0.342,0.590,0.560,��쐼,3.0,��
2022/04/17,07:10,0.561,0.830,0.536,1.014,0.711,0.340,0.590,0.560,��,3.8,��
2022/04/17,07:20,0.559,0.831,0.535,1.014,0.713,0.342,0.590,0.561,��쓌,2.9,��
2022/04/17,07:30,0.561,0.831,0.536,1.012,0.712,0.341,0.591,0.561,��쓌,3.2,��
2022/04/17,07:40,0.562,0.832,0.536,1.012,0.713,0.342,0.591,0.561,��,2.0,��
2022/04/17,07:50,0.562,0.831,0.536,1.014,0.714,0.341,0.590,0.561,��쐼,1.2,��
2022/04/17,08:00,0.562,0.834,0.535,1.014,0.713,0.343,0.591,0.560,��쓌,1.7,��
2022/04/17,08:10,0.563,0.833,0.537,1.014,0.716,0.343,0.594,0.560,��,2.2,��
2022/04/17,08:20,0.563,0.832,0.539,1.015,0.714,0.340,0.592,0.561,��쓌,2.6,��
2022/04/17,08:30,0.563,0.831,0.535,1.017,0.715,0.340,0.593,0.561,��쓌,3.2,��
2022/04/17,08:40,0.563,0.831,0.538,1.015,0.714,0.341,0.592,0.562,�쓌,3.6,��
2022/04/17,08:50,0.563,0.833,0.536,1.013,0.715,0.341,0.592,0.561,��쓌,4.5,��
2022/04/17,09:00,0.565,0.834,0.537,1.014,0.715,0.341,0.590,0.561,��쓌,4.0,��
2022/04/17,09:10,0.565,0.833,0.538,1.016,0.717,0.340,0.588,0.561,��쓌,3.6,��
2022/04/17,09:20,0.565,0.833,0.539,1.015,0.717,0.341,0.590,0.559,��쓌,5.1,��
2022/04/17,09:30,0.564,0.836,0.538,1.016,0.718,0.341,0.593,0.559,��쓌,5.1,��
2022/04/17,09:40,0.565,0.836,0.538,1.015,0.719,0.341,0.591,0.559,�쓌,5.1,��
2022/04/17,09:50,0.564,0.833,0.539,1.018,0.719,0.342,0.591,0.559,��쓌,6.1,��
2022/04/17,10:00,0.563,0.834,0.539,1.017,0.717,0.340,0.592,0.559,��쓌,5.5,��
2022/04/17,10:10,0.567,0.834,0.538,1.016,0.718,0.342,0.590,0.559,�쓌,4.8,��
2022/04/17,10:20,0.564,0.837,0.538,1.017,0.718,0.342,0.590,0.560,�쓌,4.8,��
2022/04/17,10:30,0.566,0.835,0.538,1.016,0.717,0.341,0.589,0.558,���쓌,4.0,��
2022/04/17,10:40,0.565,0.837,0.540,1.017,0.717,0.342,0.590,0.560,���쓌,3.5,��
2022/04/17,10:50,0.566,0.836,0.540,1.017,0.720,0.342,0.591,0.560,���쓌,3.5,��
2022/04/17,11:00,0.564,0.837,0.540,1.016,0.718,0.342,0.593,0.561,�쓌,3.2,��
2022/04/17,11:10,0.564,0.838,0.539,1.019,0.719,0.342,0.592,0.560,�쓌,3.8,��
2022/04/17,11:20,0.564,0.838,0.540,1.018,0.718,0.341,0.591,0.559,�쓌,4.4,��
2022/04/17,11:30,0.564,0.838,0.540,1.020,0.719,0.342,0.592,0.561,�쓌,4.5,��
2022/04/17,11:40,0.564,0.840,0.540,1.018,0.718,0.342,0.592,0.560,��쓌,5.3,��
2022/04/17,11:50,0.565,0.837,0.539,1.020,0.719,0.343,0.592,0.560,��쓌,7.7,��
2022/04/17,12:00,0.565,0.839,0.539,1.019,0.719,0.343,0.593,0.561,��쓌,6.4,��
2022/04/17,12:10,0.564,0.840,0.539,1.020,0.719,0.343,0.592,0.560,��쓌,6.2,��
2022/04/17,12:20,0.565,0.839,0.540,1.020,0.719,0.344,0.592,0.561,��쓌,7.7,��
2022/04/17,12:30,0.565,0.841,0.537,1.020,0.720,0.343,0.592,0.560,��쓌,8.4,��
2022/04/17,12:40,0.568,0.842,0.540,1.019,0.721,0.342,0.594,0.561,��쓌,9.1,��
2022/04/17,12:50,0.566,0.839,0.539,1.020,0.722,0.344,0.592,0.560,��쓌,8.1,��
2022/04/17,13:00,0.566,0.839,0.539,1.019,0.721,0.343,0.593,0.561,��쓌,7.3,��
2022/04/17,13:10,0.565,0.840,0.541,1.021,0.722,0.343,0.593,0.561,��쓌,7.6,��
2022/04/17,13:20,0.567,0.843,0.538,1.020,0.722,0.344,0.596,0.562,��쓌,10.3,��
2022/04/17,13:30,0.567,0.841,0.539,1.020,0.724,0.343,0.595,0.562,��쓌,9.5,��
2022/04/17,13:40,0.568,0.841,0.541,1.023,0.723,0.343,0.594,0.562,��쓌,9.1,��
2022/04/17,13:50,0.569,0.841,0.539,1.020,0.723,0.344,0.593,0.561,��쓌,10.3,��
2022/04/17,14:00,0.568,0.841,0.539,1.022,0.723,0.342,0.596,0.561,��쓌,10.7,��
2022/04/17,14:10,0.568,0.840,0.541,1.022,0.723,0.345,0.596,0.563,��쓌,10.5,��
2022/04/17,14:20,0.568,0.842,0.539,1.022,0.725,0.343,0.595,0.562,��쓌,10.7,��
2022/04/17,14:30,0.568,0.844,0.541,1.021,0.724,0.344,0.595,0.562,��쓌,11.3,��
2022/04/17,14:40,0.568,0.843,0.541,1.024,0.723,0.343,0.595,0.562,��쓌,13.0,��
2022/04/17,14:50,0.567,0.843,0.542,1.024,0.725,0.343,0.596,0.562,��쓌,13.8,��
2022/04/17,15:00,0.568,0.841,0.541,1.024,0.727,0.343,0.594,0.562,��쓌,13.0,��
2022/04/17,15:10,0.568,0.845,0.541,1.020,0.722,0.344,0.597,0.562,��쓌,14.2,��
2022/04/17,15:20,0.568,0.842,0.540,1.024,0.725,0.343,0.595,0.563,��쓌,15.2,��
2022/04/17,15:30,0.568,0.840,0.542,1.020,0.724,0.344,0.596,0.563,��쓌,13.9,��
2022/04/17,15:40,0.569,0.843,0.542,1.021,0.723,0.344,0.594,0.565,��쓌,13.8,��
2022/04/17,15:50,0.567,0.843,0.543,1.021,0.724,0.345,0.595,0.563,��쓌,13.5,��
2022/04/17,16:00,0.568,0.845,0.541,1.024,0.726,0.345,0.595,0.563,��,12.8,��
2022/04/17,16:10,0.569,0.842,0.544,1.021,0.727,0.345,0.595,0.562,��,11.7,��
2022/04/17,16:20,0.570,0.844,0.541,1.020,0.725,0.346,0.595,0.562,��,9.8,��
2022/04/17,16:30,0.568,0.846,0.541,1.021,0.728,0.345,0.594,0.562,��,10.2,��
2022/04/17,16:40,0.568,0.847,0.542,1.022,0.725,0.344,0.596,0.562,��,9.0,��
2022/04/17,16:50,0.568,0.848,0.541,1.020,0.726,0.346,0.595,0.563,��,8.7,��
2022/04/17,17:00,0.568,0.846,0.540,1.024,0.725,0.345,0.596,0.563,��쓌,7.5,��
2022/04/17,17:10,0.568,0.846,0.541,1.020,0.726,0.345,0.594,0.565,��,7.4,��
2022/04/17,17:20,0.569,0.845,0.542,1.024,0.728,0.346,0.594,0.564,��,5.7,��
2022/04/17,17:30,0.569,0.847,0.542,1.021,0.725,0.347,0.596,0.565,��,5.4,��
2022/04/17,17:40,0.571,0.848,0.543,1.024,0.725,0.345,0.595,0.565,��,7.3,��
2022/04/17,17:50,0.572,0.846,0.542,1.022,0.724,0.346,0.595,0.565,��,8.3,��
2022/04/17,18:00,0.572,0.845,0.541,1.023,0.726,0.347,0.594,0.565,��,8.9,��
2022/04/17,18:10,0.570,0.845,0.543,1.025,0.726,0.347,0.594,0.565,��쐼,8.3,��
2022/04/17,18:20,0.573,0.847,0.543,1.023,0.728,0.346,0.595,0.565,��,8.0,��
2022/04/17,18:30,0.572,0.848,0.543,1.024,0.729,0.345,0.594,0.565,��,7.2,��
2022/04/17,18:40,0.571,0.848,0.544,1.025,0.729,0.344,0.595,0.566,��쐼,6.1,��
2022/04/17,18:50,0.572,0.845,0.543,1.025,0.728,0.344,0.597,0.565,��,6.1,��
2022/04/17,19:00,0.570,0.847,0.544,1.026,0.730,0.345,0.595,0.564,��,7.0,��
2022/04/17,19:10,0.569,0.846,0.544,1.025,0.728,0.346,0.598,0.565,��,5.7,��
2022/04/17,19:20,0.571,0.846,0.544,1.025,0.728,0.346,0.598,0.565,��,6.5,��
2022/04/17,19:30,0.571,0.846,0.544,1.026,0.728,0.346,0.597,0.564,��,6.9,��
2022/04/17,19:40,0.570,0.846,0.543,1.025,0.728,0.346,0.598,0.565,��,8.5,��
2022/04/17,19:50,0.571,0.847,0.543,1.025,0.728,0.345,0.597,0.565,��,8.0,��
2022/04/17,20:00,0.571,0.845,0.545,1.022,0.728,0.346,0.597,0.565,��,7.7,��
2022/04/17,20:10,0.572,0.846,0.544,1.025,0.728,0.344,0.597,0.566,��쐼,6.8,��
2022/04/17,20:20,0.571,0.845,0.545,1.026,0.726,0.345,0.598,0.564,��쐼,7.1,��
2022/04/17,20:30,0.572,0.845,0.545,1.025,0.727,0.346,0.597,0.565,��쐼,7.1,��
2022/04/17,20:40,0.570,0.847,0.544,1.026,0.728,0.344,0.597,0.564,��쐼,6.1,��
2022/04/17,20:50,0.570,0.846,0.544,1.026,0.727,0.347,0.598,0.563,��,6.0,��
2022/04/17,21:00,0.570,0.846,0.545,1.026,0.728,0.345,0.597,0.565,��,5.4,��
2022/04/17,21:10,0.571,0.845,0.544,1.025,0.727,0.344,0.596,0.564,��,6.8,��
2022/04/17,21:20,0.570,0.846,0.543,1.023,0.729,0.345,0.598,0.565,��,7.2,��
2022/04/17,21:30,0.569,0.845,0.542,1.026,0.727,0.345,0.596,0.564,��,8.1,��
2022/04/17,21:40,0.571,0.846,0.542,1.024,0.728,0.345,0.599,0.564,��,8.6,��
2022/04/17,21:50,0.570,0.843,0.544,1.027,0.728,0.345,0.598,0.564,��,8.1,��
2022/04/17,22:00,0.572,0.845,0.543,1.024,0.728,0.346,0.598,0.564,��,7.6,��
2022/04/17,22:10,0.570,0.846,0.544,1.025,0.729,0.345,0.597,0.564,��,8.1,��
2022/04/17,22:20,0.571,0.844,0.545,1.025,0.728,0.344,0.597,0.565,��,7.7,��
2022/04/17,22:30,0.572,0.846,0.543,1.025,0.729,0.344,0.597,0.563,��,6.8,��
2022/04/17,22:40,0.571,0.846,0.543,1.024,0.727,0.343,0.596,0.565,��쐼,6.2,��
2022/04/17,22:50,0.571,0.843,0.545,1.026,0.726,0.344,0.597,0.564,��쐼,4.9,��
2022/04/17,23:00,0.572,0.845,0.544,1.025,0.729,0.345,0.598,0.563,��쐼,4.5,��
2022/04/17,23:10,0.571,0.847,0.543,1.025,0.728,0.345,0.599,0.566,��쐼,4.0,��
2022/04/17,23:20,0.571,0.844,0.544,1.025,0.729,0.345,0.598,0.564,��쐼,2.6,��
2022/04/17,23:30,0.570,0.846,0.545,1.026,0.729,0.346,0.597,0.565,��쐼,3.7,��
2022/04/17,23:40,0.569,0.844,0.542,1.025,0.728,0.346,0.597,0.564,��쐼,5.5,��
2022/04/17,23:50,0.569,0.846,0.543,1.025,0.727,0.345,0.598,0.564,��쐼,5.0,��
